Regional Weather Roundup
Issued by NWS Cleveland, OH

Home | Current Version | Previous Version | Graphics & Text | Print | Product List | Glossary Off
Versions: 1 2 3 4 5 6 7 8 9 10 11 12 13 14 15 16 17 18 19 20 21 22 23 24 25 26 27 28 29 30 31 32 33 34 35 36 37 38 39 40 41 42 43 44 45 46 47 48 49 50

000
ASUS41 KCLE 240412
RWRCLE
OHIO REGIONAL WEATHER ROUNDUP
NATIONAL WEATHER SERVICE WILMINGTON, OH
1200 AM EDT FRI MAR 24 2017

NOTE: "FAIR" INDICATES FEW OR NO CLOUDS BELOW 12,000 FEET WITH NO
SIGNIFICANT WEATHER AND/OR OBSTRUCTIONS TO VISIBILITY.

OHZ001>008-015>018-024>027-034-035-043-044-240500-
   NORTHWEST OHIO

CITY           SKY/WX    TMP DP  RH WIND       PRES   REMARKS
DEFIANCE       TSTM      41  35  79 E7        30.16S
FINDLAY        LGT RAIN  47  26  44 SE8       30.16F
TOLEDO EXPRESS LGT RAIN  40  29  64 CALM      30.19R
TOLEDO EXEC    CLOUDY    41  32  70 E3        30.19F
LIMA           CLOUDY    48  29  47 S12       30.16F
$$

OHZ009>014-019>023-028>033-038-089-240500-
   NORTHEAST OHIO

CITY           SKY/WX    TMP DP  RH WIND       PRES   REMARKS
CLE-HOPKINS    MOCLDY    44  11  26 S9        30.25F
CLE-LAKEFRONT  FAIR      46   8  21 SE13      30.22F
CUY CO. ARPT   NOT AVBL
LORAIN-ELYRIA  MOCLDY    42  13  30 S10       30.21F
ASHTABULA      CLOUDY    42   9  25 S10       30.25F
AKRON-CANTON   FAIR      42  10  27 SE10      30.24F
WOOSTER        FAIR      38  18  44 SE7       30.24F
MANSFIELD      MOCLDY    45  16  31 SE12      30.20F
YOUNGSTOWN     FAIR      40   6  24 SE9       30.26R
$$

OHZ042-051>053-060>062-070>072-077>081-240500-
  SOUTHWEST OHIO

CITY           SKY/WX    TMP DP  RH WIND       PRES   REMARKS
CINC-COVINGTON MOCLDY    51  34  52 S9        30.20F
CINC-LUNKEN    FAIR      47  39  74 CALM      30.22F
HAMILTON       MOCLDY    53  33  46 CALM      30.20F
DAYTON         CLOUDY    51  29  42 S10       30.19F
WRIGHT-PAT AFB MOCLDY    51  28  41 SE5       30.19F
DAYTON GENERAL FAIR      50  30  46 S6        30.19F
WILMINGTON     CLOUDY    49  34  56 S7        30.20F
$$

OHZ036-037-039>041-045>050-054>059-063>069-073>076-082>088-240500-
  CENTRAL AND SOUTHEAST OHIO

CITY           SKY/WX    TMP DP  RH WIND       PRES   REMARKS
COLUMBUS       MOCLDY    51  20  29 SE7       30.22F
OSU AIRPORT    CLOUDY    51  22  31 S8        30.21F
BOLTON FIELD   FAIR      47  27  46 S6        30.22F
RICKENBACK AFB MOCLDY    47  26  43 SE5       30.22F
NEWARK         MOCLDY    37  28  70 CALM      30.22F
MARION         CLOUDY    48  19  31 S13       30.20F
LANCASTER      CLOUDY    47  27  45 SE5       30.23F
ZANESVILLE     FAIR      44  15  31 CALM      30.24F
NEW PHILLY     FAIR      39  16  39 E3        30.26F
$$




USA.gov is the U.S. government's official web portal to all federal, state and local government web resources and services.